EW5860 Weather Reports


time (UTC)temp
C
wind
direction
speed
KPH
gust
KPH
rain 1hr
cm
rain 24hr
cm
rain mn
cm
humidity
%
barometer
mb
20260902163011 21 119 0.0 3.2 0.00 1.32 0.08 97 1019.7
20260902161511 21 92 0.0 1.6 0.00 1.32 0.08 97 1019.6
20260902160010 21 220 0.0 0.0 0.00 1.32 0.08 98 1019.7
20260902154512 21 111 0.0 3.2 0.00 1.32 0.08 98 1019.1
20260902153008 21 150 0.0 4.8 0.00 1.32 0.08 98 1019.0
20260902151508 21 101 0.0 4.8 0.00 1.32 0.08 98 1019.2
20260902150007 21 49 0.0 1.6 0.00 1.32 0.08 98 1019.2
20260902144506 21 11 0.0 1.6 0.00 1.32 0.08 98 1019.5
20260902143006 20 110 0.0 4.8 0.00 1.32 0.08 98 1019.4
20260902141515 20 32 0.0 1.6 0.00 1.32 0.08 98 1019.6
20260902140002 20 88 0.0 3.2 0.00 1.32 0.08 98 1019.3
20260902134502 20 268 0.0 3.2 0.00 1.35 0.08 98 1019.0
20260902133002 20 150 0.0 6.4 0.03 1.35 0.08 98 1019.0
20260902131559 20 309 0.0 1.6 0.03 1.35 0.08 98 1018.9
20260902130058 20 111 0.0 3.2 0.03 1.35 0.08 98 1018.5
20260902124605 20 108 0.0 3.2 0.03 1.35 0.08 98 1018.6
20260902123056 20 144 0.0 3.2 0.00 1.32 0.05 98 1018.6
20260902121602 20 24 0.0 1.6 0.03 1.32 0.05 98 1018.6
20260902120052 20 284 0.0 1.6 0.03 1.32 0.05 98 1018.4
20260902114552 20 283 0.0 1.6 0.03 1.32 0.05 98 1018.5
20260902113050 20 300 0.0 1.6 0.03 1.32 0.05 98 1018.1
20260902111549 20 142 0.0 1.6 0.00 1.30 0.03 98 1018.2
20260902110049 20 242 0.0 0.0 0.00 1.30 0.03 98 1018.3
20260902104551 20 242 0.0 3.2 0.00 1.30 0.03 98 1018.3
20260902103047 20 155 0.0 0.0 0.00 1.30 0.03 98 1018.2
20260902101552 20 130 0.0 3.2 0.00 1.30 0.03 98 1017.9
20260902100044 20 111 0.0 4.8 0.00 1.30 0.03 98 1017.8
20260902094543 21 342 0.0 3.2 0.00 1.30 0.03 98 1017.7
20260902093055 21 329 0.0 1.6 0.03 1.30 0.03 98 1017.6
20260902091550 21 310 0.0 3.2 0.03 1.30 0.03 98 1017.7
20260902090045 21 290 0.0 1.6 0.03 1.30 0.03 98 1017.5
20260902084549 21 178 0.0 0.0 0.03 1.30 0.03 98 1017.4
20260902083047 21 118 0.0 0.0 0.00 1.27 0.00 98 1017.3
20260902081535 21 126 0.0 3.2 0.00 1.27 0.00 98 1016.9
20260902080035 21 257 0.0 1.6 0.00 1.27 0.00 98 1016.9
20260902074534 21 269 0.0 1.6 0.00 1.27 0.00 98 1016.8
20260902073035 20 267 0.0 0.0 0.00 1.27 0.00 98 1016.9
20260902071537 20 267 0.0 0.0 0.00 1.27 0.00 98 1016.7
20260902070033 20 266 0.0 0.0 0.00 1.27 0.00 98 1016.7
20260902064533 20 266 0.0 0.0 0.00 1.27 0.00 98 1016.8
20260902063033 20 267 0.0 0.0 0.00 1.27 0.00 98 1016.6
20260902061543 20 266 0.0 0.0 0.00 1.27 0.00 98 1016.5
20260902060030 20 267 0.0 0.0 0.00 1.27 0.00 98 1016.7
20260902054534 20 267 0.0 0.0 0.00 1.27 0.00 98 1016.8
20260902053030 20 267 0.0 1.6 0.00 1.27 0.00 98 1016.7
20260902051526 20 34 0.0 1.6 0.00 1.27 0.00 98 1016.4
20260902050026 21 34 0.0 0.0 0.00 1.27 0.00 98 1016.6
20260902044524 21 34 0.0 0.0 0.00 1.30 0.00 98 1017.1
20260902043022 21 34 0.0 0.0 0.00 1.30 0.00 97 1017.0
20260902041520 21 75 0.0 1.6 0.00 1.30 0.00 98 1016.7
20260902040017 21 221 0.0 1.6 0.00 1.30 0.00 97 1016.7
20260902034519 21 253 0.0 0.0 0.00 1.32 1.30 97 1016.5
20260902033017 21 254 0.0 1.6 0.00 1.32 1.30 97 1016.4
20260902031516 21 255 0.0 3.2 0.00 1.32 1.30 97 1015.7
20260902030015 21 247 0.0 3.2 0.00 1.32 1.30 97 1015.5
20260902024521 21 257 0.0 4.8 0.00 1.32 1.30 97 1015.6
20260902023015 21 89 0.0 1.6 0.00 1.32 1.30 97 1014.5
20260902021514 21 104 0.0 1.6 0.00 1.32 1.30 96 1015.0
20260902020020 21 109 0.0 3.2 0.00 1.32 1.30 96 1015.0
20260902014514 21 247 0.0 4.8 0.00 1.32 1.30 96 1014.2
20260902013013 21 258 1.6 8.0 0.00 1.32 1.30 96 1013.9
20260902011512 21 233 0.0 0.0 0.00 1.32 1.30 96 1013.5
20260902010017 21 272 0.0 3.2 0.03 1.32 1.30 95 1013.6
20260902004512 21 54 0.0 1.6 0.03 1.32 1.30 95 1013.8
20260902003012 21 239 0.0 6.4 0.69 1.32 1.30 95 1013.7
20260902001511 22 219 0.0 0.0 1.09 1.32 1.30 93 1014.1
20260902000012 22 333 0.0 8.0 1.22 1.30 1.27 91 1014.7
20260901234510 22 280 6.4 22.5 1.22 1.30 1.27 90 1014.6
20260901233013 25 242 14.5 25.7 0.51 0.58 0.56 81 1013.5
20260901231508 27 205 0.0 3.2 0.13 0.20 0.18 91 1012.6
20260901230007 28 216 0.0 0.0 0.00 0.08 0.05 87 1012.6
20260901224506 29 213 0.0 1.6 0.00 0.08 0.05 84 1012.5
20260901223006 30 213 0.0 1.6 0.00 0.08 0.05 80 1012.4
20260901221505 31 233 0.0 4.8 0.00 0.08 0.05 76 1012.6
20260901220002 31 235 1.6 4.8 0.00 0.08 0.05 73 1012.7
20260901214605 31 222 1.6 6.4 0.00 0.08 0.05 71 1012.4
20260901213115 31 266 1.6 6.4 0.00 0.08 0.05 71 1012.8
20260901211558 32 167 1.6 8.0 0.00 0.08 0.05 69 1012.7
20260901210056 31 255 1.6 8.0 0.00 0.08 0.05 71 1012.6
20260901204552 31 227 1.6 11.3 0.00 0.08 0.05 71 1012.8
20260901203051 31 272 3.2 11.3 0.00 0.08 0.05 71 1012.9
20260901201548 31 220 9.7 19.3 0.00 0.08 0.05 70 1013.1
20260901200047 30 207 12.9 22.5 0.00 0.08 0.05 72 1013.0
20260901194544 30 267 4.8 12.9 0.00 0.13 0.05 73 1013.4
20260901193042 30 212 4.8 9.7 0.00 0.13 0.05 76 1013.5
20260901191541 30 226 1.6 6.4 0.00 0.13 0.05 77 1013.6
20260901190037 29 260 1.6 12.9 0.00 0.13 0.05 77 1013.6
20260901184544 30 256 0.0 8.0 0.00 0.13 0.05 76 1013.8
20260901183038 30 193 1.6 8.0 0.00 0.13 0.05 76 1014.0
20260901181536 30 252 1.6 6.4 0.00 0.13 0.05 76 1014.1
20260901180037 30 237 0.0 11.3 0.00 0.13 0.05 75 1014.1
20260901174533 30 210 4.8 11.3 0.00 0.13 0.05 74 1014.0
20260901173031 29 204 4.8 9.7 0.00 0.13 0.05 74 1013.9
20260901171526 29 235 4.8 19.3 0.00 0.13 0.05 77 1014.1
20260901170023 28 264 1.6 6.4 0.00 0.13 0.05 82 1014.4
20260901164520 27 252 0.0 6.4 0.00 0.13 0.05 84 1014.6